Time,TemperatureF,DewpointF,PressureIn,WindDirection,WindDirectionDegrees,WindSpeedMPH,WindSpeedGustMPH,Humidity,HourlyPrecipIn,Conditions,Clouds,dailyrainin,SoftwareType,DateUTC
2013-09-26 00:04:00,75.9,69.3,29.77,SE,135,0.0,0.0,80,0.00,,,0.00,WSDL version 420,2013-09-26 04:04:00,
2013-09-26 00:09:00,75.7,69.1,29.77,SE,135,0.0,0.0,80,0.00,,,0.00,WSDL version 420,2013-09-26 04:09:00,
2013-09-26 00:14:00,75.7,69.1,29.80,SE,135,0.0,0.0,80,0.00,,,0.00,WSDL version 420,2013-09-26 04:14:00,
2013-09-26 00:24:00,75.4,69.2,29.80,SE,135,0.0,0.0,81,0.00,,,0.00,WSDL version 420,2013-09-26 04:24:00,
2013-09-26 00:29:00,75.4,69.2,29.77,SE,135,0.0,0.0,81,0.00,,,0.00,WSDL version 420,2013-09-26 04:29:00,
2013-09-26 00:34:00,75.2,69.1,29.77,SE,135,0.0,0.0,82,0.00,,,0.00,WSDL version 420,2013-09-26 04:34:00,
2013-09-26 00:39:00,75.2,69.4,29.77,SE,135,0.0,0.0,82,0.00,,,0.00,WSDL version 420,2013-09-26 04:39:00,
2013-09-26 00:44:00,75.2,69.4,29.77,SE,135,0.0,0.0,82,0.00,,,0.00,WSDL version 420,2013-09-26 04:44:00,
2013-09-26 00:49:00,75.0,69.5,29.77,SE,135,0.0,0.0,83,0.00,,,0.00,WSDL version 420,2013-09-26 04:49:00,
2013-09-26 00:54:00,75.0,69.6,29.77,SE,135,0.0,0.0,83,0.00,,,0.00,WSDL version 420,2013-09-26 04:54:00,
2013-09-26 00:59:00,75.0,69.6,29.77,SE,135,0.0,0.0,83,0.00,,,0.00,WSDL version 420,2013-09-26 04:59:00,
2013-09-26 01:04:00,74.8,69.7,29.77,SE,135,0.0,0.0,84,0.00,,,0.00,WSDL version 420,2013-09-26 05:04:00,
2013-09-26 01:09:00,75.0,70.0,29.77,SE,135,0.0,0.0,84,0.00,,,0.00,WSDL version 420,2013-09-26 05:09:00,
2013-09-26 01:14:00,74.8,69.8,29.74,SE,135,0.0,0.0,84,0.00,,,0.00,WSDL version 420,2013-09-26 05:14:00,
2013-09-26 01:19:00,74.8,69.8,29.74,SE,135,0.0,0.0,84,0.00,,,0.00,WSDL version 420,2013-09-26 05:19:00,
2013-09-26 01:24:00,74.8,70.1,29.74,SE,135,0.0,0.0,86,0.00,,,0.00,WSDL version 420,2013-09-26 05:24:00,
2013-09-26 01:29:00,74.7,70.1,29.77,SE,135,0.0,0.0,86,0.00,,,0.00,WSDL version 420,2013-09-26 05:29:00,
2013-09-26 01:34:00,74.7,70.0,29.77,SE,135,0.0,0.0,86,0.00,,,0.00,WSDL version 420,2013-09-26 05:34:00,
2013-09-26 01:39:00,74.7,70.0,29.77,SE,135,0.0,0.0,86,0.00,,,0.00,WSDL version 420,2013-09-26 05:39:00,
2013-09-26 01:44:00,74.7,70.1,29.77,SE,135,0.0,0.0,87,0.00,,,0.00,WSDL version 420,2013-09-26 05:44:00,
2013-09-26 01:49:00,74.6,70.3,29.77,SE,135,0.0,0.0,87,0.00,,,0.00,WSDL version 420,2013-09-26 05:49:00,
2013-09-26 01:54:00,74.5,70.2,29.77,SE,135,0.0,0.0,87,0.00,,,0.00,WSDL version 420,2013-09-26 05:54:00,
2013-09-26 01:59:00,74.4,70.2,29.74,SE,135,0.0,0.0,87,0.00,,,0.00,WSDL version 420,2013-09-26 05:59:00,
2013-09-26 02:04:00,74.3,70.1,29.74,SE,135,0.0,0.0,87,0.00,,,0.00,WSDL version 420,2013-09-26 06:04:00,
2013-09-26 02:09:00,74.3,70.1,29.74,SE,135,0.0,0.0,87,0.00,,,0.00,WSDL version 420,2013-09-26 06:09:00,
2013-09-26 02:14:00,74.3,70.1,29.74,SE,135,0.0,0.0,87,0.00,,,0.00,WSDL version 420,2013-09-26 06:14:00,
2013-09-26 02:19:00,74.3,70.3,29.74,SE,135,0.0,0.0,88,0.00,,,0.00,WSDL version 420,2013-09-26 06:19:00,
2013-09-26 02:24:00,74.1,70.3,29.74,SE,135,0.0,0.0,88,0.00,,,0.00,WSDL version 420,2013-09-26 06:24:00,
2013-09-26 02:29:00,74.1,70.3,29.74,SE,135,0.0,0.9,88,0.00,,,0.00,WSDL version 420,2013-09-26 06:29:00,
2013-09-26 02:34:00,74.1,70.3,29.74,SE,135,0.0,0.9,88,0.00,,,0.00,WSDL version 420,2013-09-26 06:34:00,
2013-09-26 02:39:00,74.1,70.3,29.74,SE,135,0.0,0.0,88,0.00,,,0.00,WSDL version 420,2013-09-26 06:39:00,
2013-09-26 02:44:00,74.1,70.3,29.74,SE,135,0.0,0.0,88,0.00,,,0.00,WSDL version 420,2013-09-26 06:44:00,
2013-09-26 02:49:00,74.1,70.3,29.74,SE,135,0.0,0.0,88,0.00,,,0.00,WSDL version 420,2013-09-26 06:49:00,
2013-09-26 02:54:00,74.1,70.3,29.74,SE,135,0.0,0.0,88,0.00,,,0.00,WSDL version 420,2013-09-26 06:54:00,
2013-09-26 02:59:00,73.9,70.1,29.74,SE,135,0.0,0.0,88,0.00,,,0.00,WSDL version 420,2013-09-26 06:59:00,
2013-09-26 03:04:00,73.9,70.2,29.74,SE,135,0.0,0.0,89,0.00,,,0.00,WSDL version 420,2013-09-26 07:04:00,
2013-09-26 03:09:00,73.9,70.5,29.74,SE,135,0.0,0.0,89,0.00,,,0.00,WSDL version 420,2013-09-26 07:09:00,
2013-09-26 03:14:00,73.9,70.5,29.74,SE,135,0.0,0.0,89,0.00,,,0.00,WSDL version 420,2013-09-26 07:14:00,
2013-09-26 03:19:00,73.9,70.5,29.74,SE,135,0.0,0.0,89,0.00,,,0.00,WSDL version 420,2013-09-26 07:19:00,
2013-09-26 03:24:00,73.9,70.5,29.74,SE,135,0.0,0.0,89,0.00,,,0.00,WSDL version 420,2013-09-26 07:24:00,
2013-09-26 03:29:00,73.9,70.4,29.74,SE,135,0.0,0.0,89,0.00,,,0.00,WSDL version 420,2013-09-26 07:29:00,
2013-09-26 03:34:00,73.8,70.3,29.74,SE,135,0.0,0.0,89,0.00,,,0.00,WSDL version 420,2013-09-26 07:34:00,
2013-09-26 03:39:00,73.8,70.3,29.74,SE,135,0.0,0.0,89,0.00,,,0.00,WSDL version 420,2013-09-26 07:39:00,
2013-09-26 03:44:00,73.8,70.3,29.74,SE,135,0.0,0.0,89,0.00,,,0.00,WSDL version 420,2013-09-26 07:44:00,
2013-09-26 03:49:00,73.8,70.3,29.74,SE,135,0.0,0.0,89,0.00,,,0.00,WSDL version 420,2013-09-26 07:49:00,
2013-09-26 03:54:00,73.8,70.3,29.74,SE,135,0.0,0.0,89,0.00,,,0.00,WSDL version 420,2013-09-26 07:54:00,
2013-09-26 03:59:00,73.8,70.4,29.74,SE,135,0.0,0.0,90,0.00,,,0.00,WSDL version 420,2013-09-26 07:59:00,
2013-09-26 04:04:00,73.8,70.6,29.74,SE,135,0.0,0.0,90,0.00,,,0.00,WSDL version 420,2013-09-26 08:04:00,
2013-09-26 04:09:00,73.8,70.6,29.74,SE,135,0.0,0.0,90,0.00,,,0.00,WSDL version 420,2013-09-26 08:09:00,
2013-09-26 04:14:00,73.8,70.6,29.77,SE,135,0.0,0.0,90,0.00,,,0.00,WSDL version 420,2013-09-26 08:14:00,
2013-09-26 04:19:00,73.8,70.6,29.77,South,180,0.0,0.9,90,0.00,,,0.00,WSDL version 420,2013-09-26 08:19:00,
2013-09-26 04:24:00,73.8,70.6,29.77,South,180,0.0,0.9,90,0.00,,,0.00,WSDL version 420,2013-09-26 08:24:00,
2013-09-26 04:29:00,73.8,70.6,29.74,South,180,0.0,0.0,90,0.00,,,0.00,WSDL version 420,2013-09-26 08:29:00,
2013-09-26 04:34:00,73.8,70.7,29.74,South,180,0.0,0.0,90,0.00,,,0.00,WSDL version 420,2013-09-26 08:34:00,
2013-09-26 04:39:00,73.8,70.7,29.74,South,180,0.0,0.0,90,0.00,,,0.00,WSDL version 420,2013-09-26 08:39:00,
2013-09-26 04:44:00,73.8,70.7,29.74,South,180,0.0,0.0,90,0.00,,,0.00,WSDL version 420,2013-09-26 08:44:00,
2013-09-26 04:49:00,73.9,70.8,29.74,South,180,0.0,0.0,90,0.00,,,0.00,WSDL version 420,2013-09-26 08:49:00,
2013-09-26 04:54:00,73.8,70.7,29.74,South,180,0.0,0.0,90,0.00,,,0.00,WSDL version 420,2013-09-26 08:54:00,
2013-09-26 04:59:00,73.9,70.9,29.71,South,180,0.0,0.0,91,0.00,,,0.00,WSDL version 420,2013-09-26 08:59:00,
2013-09-26 05:04:00,73.9,71.2,29.71,South,180,0.0,1.3,91,0.00,,,0.00,WSDL version 420,2013-09-26 09:04:00,
2013-09-26 05:09:00,73.9,71.2,29.71,South,180,0.0,1.3,91,0.00,,,0.00,WSDL version 420,2013-09-26 09:09:00,
2013-09-26 05:14:00,73.9,71.1,29.74,South,180,0.0,0.0,91,0.00,,,0.00,WSDL version 420,2013-09-26 09:14:00,
2013-09-26 05:19:00,73.9,71.2,29.74,South,180,0.0,0.0,91,0.00,,,0.00,WSDL version 420,2013-09-26 09:19:00,
2013-09-26 05:24:00,73.9,71.2,29.74,South,180,0.0,0.0,91,0.00,,,0.00,WSDL version 420,2013-09-26 09:24:00,
2013-09-26 05:29:00,73.9,71.2,29.74,South,180,0.0,0.0,91,0.00,,,0.00,WSDL version 420,2013-09-26 09:29:00,
2013-09-26 05:34:00,73.9,71.1,29.74,South,180,0.0,0.0,91,0.00,,,0.00,WSDL version 420,2013-09-26 09:34:00,
2013-09-26 05:39:00,73.8,71.0,29.74,South,180,0.0,0.0,91,0.00,,,0.00,WSDL version 420,2013-09-26 09:39:00,
2013-09-26 05:44:00,73.9,71.2,29.74,South,180,0.0,1.1,91,0.00,,,0.00,WSDL version 420,2013-09-26 09:44:00,
2013-09-26 05:49:00,73.9,71.2,29.74,South,180,0.0,1.1,91,0.00,,,0.00,WSDL version 420,2013-09-26 09:49:00,
2013-09-26 05:54:00,73.9,71.2,29.74,South,180,0.0,0.0,91,0.00,,,0.00,WSDL version 420,2013-09-26 09:54:00,
2013-09-26 05:59:00,73.9,71.2,29.74,South,180,0.0,0.0,91,0.00,,,0.00,WSDL version 420,2013-09-26 09:59:00,
2013-09-26 06:04:00,73.9,71.1,29.74,South,180,0.0,0.0,91,0.00,,,0.00,WSDL version 420,2013-09-26 10:04:00,
2013-09-26 06:09:00,73.9,71.2,29.74,South,180,0.3,1.6,91,0.00,,,0.00,WSDL version 420,2013-09-26 10:09:00,
2013-09-26 06:14:00,74.0,71.2,29.74,SSE,161,0.0,1.6,91,0.00,,,0.00,WSDL version 420,2013-09-26 10:14:00,
2013-09-26 06:19:00,74.0,71.3,29.74,South,180,0.0,2.0,91,0.00,,,0.00,WSDL version 420,2013-09-26 10:19:00,
2013-09-26 06:24:00,74.1,71.4,29.74,South,180,0.0,2.0,91,0.00,,,0.00,WSDL version 420,2013-09-26 10:24:00,
2013-09-26 06:29:00,74.1,71.4,29.74,South,180,0.0,0.0,91,0.00,,,0.00,WSDL version 420,2013-09-26 10:29:00,
2013-09-26 06:34:00,74.1,71.4,29.74,South,180,0.0,0.0,91,0.00,,,0.00,WSDL version 420,2013-09-26 10:34:00,
2013-09-26 06:39:00,74.1,71.4,29.74,South,180,0.0,0.0,91,0.00,,,0.00,WSDL version 420,2013-09-26 10:39:00,
2013-09-26 06:44:00,74.1,71.4,29.74,South,180,0.0,0.0,91,0.00,,,0.00,WSDL version 420,2013-09-26 10:44:00,
2013-09-26 06:49:00,73.9,71.2,29.74,South,180,0.0,0.0,91,0.00,,,0.00,WSDL version 420,2013-09-26 10:49:00,
2013-09-26 06:54:00,74.1,71.3,29.74,South,180,0.0,0.0,91,0.00,,,0.00,WSDL version 420,2013-09-26 10:54:00,
2013-09-26 06:59:00,74.1,71.4,29.74,South,180,0.0,0.0,91,0.00,,,0.00,WSDL version 420,2013-09-26 10:59:00,
2013-09-26 07:04:00,74.1,71.4,29.74,South,180,0.0,0.0,91,0.00,,,0.00,WSDL version 420,2013-09-26 11:04:00,
2013-09-26 07:09:00,74.1,71.4,29.74,South,180,0.0,0.9,91,0.00,,,0.00,WSDL version 420,2013-09-26 11:09:00,
2013-09-26 07:14:00,74.1,71.5,29.77,South,180,0.0,0.9,92,0.00,,,0.00,WSDL version 420,2013-09-26 11:14:00,
2013-09-26 07:19:00,74.1,71.6,29.77,South,180,0.0,0.0,92,0.00,,,0.00,WSDL version 420,2013-09-26 11:19:00,
2013-09-26 07:24:00,74.1,71.7,29.77,South,180,0.0,0.0,92,0.00,,,0.00,WSDL version 420,2013-09-26 11:24:00,
2013-09-26 07:29:00,74.3,71.9,29.77,South,180,0.0,0.0,92,0.00,,,0.00,WSDL version 420,2013-09-26 11:29:00,
2013-09-26 07:34:00,74.3,71.9,29.77,South,180,0.0,0.0,92,0.00,,,0.00,WSDL version 420,2013-09-26 11:34:00,
2013-09-26 07:39:00,74.4,72.0,29.77,South,180,0.0,0.0,92,0.00,,,0.00,WSDL version 420,2013-09-26 11:39:00,
2013-09-26 07:44:00,74.8,72.3,29.74,South,180,0.0,0.0,92,0.00,,,0.00,WSDL version 420,2013-09-26 11:44:00,
2013-09-26 07:49:00,75.0,72.5,29.74,South,180,1.2,2.0,92,0.00,,,0.00,WSDL version 420,2013-09-26 11:49:00,
2013-09-26 07:54:00,75.3,72.8,29.74,South,180,0.0,2.0,92,0.00,,,0.00,WSDL version 420,2013-09-26 11:54:00,
2013-09-26 07:59:00,75.6,73.2,29.77,South,180,0.0,2.0,92,0.00,,,0.00,WSDL version 420,2013-09-26 11:59:00,
2013-09-26 08:06:00,76.1,73.7,29.77,SSE,163,0.6,1.6,92,0.00,,,0.00,WSDL version 420,2013-09-26 12:06:00,
2013-09-26 08:11:00,76.4,74.0,29.77,SSE,158,0.0,1.6,92,0.00,,,0.00,WSDL version 420,2013-09-26 12:11:00,
2013-09-26 08:16:00,77.0,74.5,29.77,South,180,0.0,0.9,92,0.00,,,0.00,WSDL version 420,2013-09-26 12:16:00,
2013-09-26 08:21:00,77.4,74.9,29.77,South,180,0.0,0.9,92,0.00,,,0.00,WSDL version 420,2013-09-26 12:21:00,
2013-09-26 08:26:00,77.8,75.4,29.77,South,180,0.0,2.0,92,0.00,,,0.00,WSDL version 420,2013-09-26 12:26:00,
2013-09-26 08:31:00,78.3,75.8,29.77,SSW,203,0.8,2.7,92,0.00,,,0.00,WSDL version 420,2013-09-26 12:31:00,
2013-09-26 08:36:00,78.7,76.1,29.77,South,180,0.0,2.7,91,0.00,,,0.00,WSDL version 420,2013-09-26 12:36:00,
2013-09-26 08:41:00,79.2,76.3,29.77,ESE,120,0.7,1.6,91,0.00,,,0.00,WSDL version 420,2013-09-26 12:41:00,
2013-09-26 08:46:00,79.5,76.7,29.77,West,281,0.4,2.9,91,0.00,,,0.00,WSDL version 420,2013-09-26 12:46:00,
2013-09-26 08:51:00,79.8,77.0,29.77,SSW,196,1.1,2.9,91,0.00,,,0.00,WSDL version 420,2013-09-26 12:51:00,
2013-09-26 08:56:00,80.2,77.1,29.77,West,275,1.7,3.8,90,0.00,,,0.00,WSDL version 420,2013-09-26 12:56:00,
2013-09-26 09:01:00,80.6,77.3,29.80,NE,45,0.3,3.8,90,0.00,,,0.00,WSDL version 420,2013-09-26 13:01:00,
2013-09-26 09:06:00,80.9,77.4,29.80,West,280,1.5,3.8,89,0.00,,,0.00,WSDL version 420,2013-09-26 13:06:00,
2013-09-26 09:11:00,81.1,77.6,29.80,WSW,255,1.3,3.8,89,0.00,,,0.00,WSDL version 420,2013-09-26 13:11:00,
2013-09-26 09:16:00,81.5,77.5,29.80,West,270,1.6,3.8,88,0.00,,,0.00,WSDL version 420,2013-09-26 13:16:00,
2013-09-26 09:21:00,81.9,77.6,29.80,West,270,1.6,3.8,87,-99.99,,,-99.99,WSDL version 420,2013-09-26 13:21:00,
2013-09-26 09:26:00,82.2,77.7,29.80,SSW,203,2.0,2.0,86,-99.99,,,-99.99,WSDL version 420,2013-09-26 13:26:00,
2013-09-26 09:31:00,82.5,77.5,29.80,South,180,2.2,2.7,84,-99.99,,,-99.99,WSDL version 420,2013-09-26 13:31:00,
2013-09-26 09:36:00,82.9,77.4,29.80,South,180,2.0,2.7,83,0.00,,,0.00,WSDL version 420,2013-09-26 13:36:00,
2013-09-26 09:41:00,83.2,77.4,29.80,SW,225,0.0,1.6,82,0.00,,,0.00,WSDL version 420,2013-09-26 13:41:00,
2013-09-26 09:46:00,83.7,77.7,29.80,SW,225,0.0,1.6,82,0.00,,,0.00,WSDL version 420,2013-09-26 13:46:00,
2013-09-26 09:51:00,84.3,77.6,29.80,SW,225,0.0,1.6,80,0.00,,,0.00,WSDL version 420,2013-09-26 13:51:00,
2013-09-26 09:56:00,84.4,77.1,29.80,WSW,248,0.9,1.6,79,0.00,,,0.00,WSDL version 420,2013-09-26 13:56:00,
2013-09-26 10:01:00,84.8,77.4,29.80,WSW,248,0.9,1.6,78,0.00,,,0.00,WSDL version 420,2013-09-26 14:01:00,
2013-09-26 10:06:00,85.1,77.3,29.80,SE,135,3.1,3.1,77,-99.99,,,-99.99,WSDL version 420,2013-09-26 14:06:00,
2013-09-26 10:11:00,85.7,77.4,29.80,South,180,2.0,2.0,76,-99.99,,,-99.99,WSDL version 420,2013-09-26 14:11:00,
2013-09-26 10:16:00,86.0,76.4,29.80,South,180,2.0,2.0,73,-99.99,,,-99.99,WSDL version 420,2013-09-26 14:16:00,
2013-09-26 10:21:00,85.8,75.8,29.80,ENE,68,1.3,2.0,72,-99.99,,,-99.99,WSDL version 420,2013-09-26 14:21:00,
2013-09-26 10:26:00,85.9,75.8,29.80,SSW,203,2.7,2.7,72,-99.99,,,-99.99,WSDL version 420,2013-09-26 14:26:00,
2013-09-26 10:31:00,86.1,75.6,29.80,South,180,3.7,4.0,71,-99.99,,,-99.99,WSDL version 420,2013-09-26 14:31:00,
2013-09-26 10:36:00,86.1,74.9,29.80,SSW,203,2.7,4.0,68,-99.99,,,-99.99,WSDL version 420,2013-09-26 14:36:00,
2013-09-26 10:41:00,86.2,74.8,29.80,ENE,68,0.9,4.0,69,-99.99,,,-99.99,WSDL version 420,2013-09-26 14:41:00,
2013-09-26 10:46:00,86.2,74.9,29.80,ENE,68,0.9,4.0,69,-99.99,,,-99.99,WSDL version 420,2013-09-26 14:46:00,
2013-09-26 10:51:00,86.9,75.4,29.80,ENE,68,0.9,0.0,68,-99.99,,,-99.99,WSDL version 420,2013-09-26 14:51:00,
2013-09-26 10:56:00,86.6,74.8,29.80,North,0,0.0,0.0,68,-99.99,,,-99.99,WSDL version 420,2013-09-26 14:56:00,
2013-09-26 11:01:00,86.0,74.2,29.80,North,0,0.0,0.0,68,-99.99,,,-99.99,WSDL version 420,2013-09-26 15:01:00,
2013-09-26 11:06:00,85.4,73.6,29.80,North,-999,-999.0,-999.0,68,-99.99,,,-99.99,WSDL version 420,2013-09-26 15:06:00,
2013-09-26 11:13:00,84.8,73.6,29.80,SW,225,1.0,2.5,70,-99.99,,,-99.99,WSDL version 420,2013-09-26 15:13:00,
2013-09-26 11:18:00,86.3,75.7,29.80,WSW,248,2.5,2.5,71,-99.99,,,-99.99,WSDL version 420,2013-09-26 15:18:00,
2013-09-26 11:23:00,86.7,75.7,29.80,North,360,1.6,2.5,70,-99.99,,,-99.99,WSDL version 420,2013-09-26 15:23:00,
2013-09-26 11:28:00,86.8,75.8,29.77,NNW,338,1.3,2.2,70,-99.99,,,-99.99,WSDL version 420,2013-09-26 15:28:00,
2013-09-26 11:33:00,87.0,76.1,29.77,SSW,203,2.0,2.0,70,-99.99,,,-99.99,WSDL version 420,2013-09-26 15:33:00,
2013-09-26 11:38:00,87.9,76.6,29.77,SW,218,0.8,2.0,68,0.00,,,0.00,WSDL version 420,2013-09-26 15:38:00,
2013-09-26 11:43:00,88.6,76.2,29.77,NNE,23,2.7,2.7,66,0.00,,,0.00,WSDL version 420,2013-09-26 15:43:00,
2013-09-26 11:48:00,89.2,75.9,29.77,South,180,1.3,3.8,65,0.00,,,0.00,WSDL version 420,2013-09-26 15:48:00,
2013-09-26 11:53:00,89.7,75.9,29.77,NW,304,1.6,3.8,64,-99.99,,,-99.99,WSDL version 420,2013-09-26 15:53:00,
2013-09-26 11:58:00,90.3,76.3,29.77,North,0,0.0,2.0,63,-99.99,,,-99.99,WSDL version 420,2013-09-26 15:58:00,
2013-09-26 12:03:00,90.0,75.3,29.77,SSE,158,1.6,1.6,62,-99.99,,,-99.99,WSDL version 420,2013-09-26 16:03:00,
2013-09-26 12:08:00,90.0,74.7,29.77,SE,135,1.6,1.6,60,-99.99,,,-99.99,WSDL version 420,2013-09-26 16:08:00,
2013-09-26 12:13:00,90.1,74.0,29.74,SE,135,1.6,1.6,60,-99.99,,,-99.99,WSDL version 420,2013-09-26 16:13:00,
2013-09-26 12:18:00,90.4,74.0,29.74,SE,135,1.6,1.6,58,-99.99,,,-99.99,WSDL version 420,2013-09-26 16:18:00,
2013-09-26 12:23:00,89.8,72.5,29.74,North,0,0.0,1.6,57,-99.99,,,-99.99,WSDL version 420,2013-09-26 16:23:00,
2013-09-26 12:28:00,89.8,73.0,29.74,North,-999,-999.0,-999.0,58,-99.99,,,-99.99,WSDL version 420,2013-09-26 16:28:00,
2013-09-26 12:33:00,90.8,74.7,29.74,North,-999,-999.0,-999.0,59,-99.99,,,-99.99,WSDL version 420,2013-09-26 16:33:00,
2013-09-26 12:38:00,90.0,73.2,29.74,North,-999,-999.0,-999.0,58,-99.99,,,-99.99,WSDL version 420,2013-09-26 16:38:00,
2013-09-26 12:43:00,89.8,73.1,29.74,North,-999,-999.0,-999.0,58,-99.99,,,-99.99,WSDL version 420,2013-09-26 16:43:00,
2013-09-26 12:48:00,90.7,74.4,29.74,North,-999,-999.0,-999.0,59,-99.99,,,-99.99,WSDL version 420,2013-09-26 16:48:00,
2013-09-26 12:53:00,91.4,74.5,29.74,North,-999,-999.0,-999.0,58,-99.99,,,-99.99,WSDL version 420,2013-09-26 16:53:00,
2013-09-26 12:58:00,91.9,74.4,29.74,North,-999,-999.0,-999.0,56,-99.99,,,-99.99,WSDL version 420,2013-09-26 16:58:00,
2013-09-26 13:03:00,92.6,74.6,29.74,North,-999,-999.0,-999.0,55,-99.99,,,-99.99,WSDL version 420,2013-09-26 17:03:00,
2013-09-26 13:08:00,92.9,74.5,29.74,North,-999,-999.0,-999.0,55,-99.99,,,-99.99,WSDL version 420,2013-09-26 17:08:00,
2013-09-26 13:13:00,91.7,72.7,29.74,North,-999,-999.0,-999.0,53,-99.99,,,-99.99,WSDL version 420,2013-09-26 17:13:00,
2013-09-26 13:18:00,89.0,69.1,29.74,North,-999,-999.0,-999.0,52,-99.99,,,-99.99,WSDL version 420,2013-09-26 17:18:00,
2013-09-26 13:23:00,86.7,68.2,29.74,North,-999,-999.0,-999.0,55,-99.99,,,-99.99,WSDL version 420,2013-09-26 17:23:00,
2013-09-26 13:28:00,84.6,68.9,29.74,North,-999,-999.0,-999.0,61,-99.99,,,-99.99,WSDL version 420,2013-09-26 17:28:00,
2013-09-26 13:33:00,83.3,69.1,29.74,North,-999,-999.0,-999.0,63,-99.99,,,-99.99,WSDL version 420,2013-09-26 17:33:00,
2013-09-26 13:38:00,82.7,69.6,29.74,North,-999,-999.0,-999.0,66,-99.99,,,-99.99,WSDL version 420,2013-09-26 17:38:00,
2013-09-26 13:43:00,82.3,70.7,29.74,North,-999,-999.0,-999.0,69,-99.99,,,-99.99,WSDL version 420,2013-09-26 17:43:00,
2013-09-26 13:48:00,82.5,71.5,29.74,North,-999,-999.0,-999.0,70,-99.99,,,-99.99,WSDL version 420,2013-09-26 17:48:00,
2013-09-26 13:53:00,83.4,73.0,29.74,North,-999,-999.0,-999.0,72,-99.99,,,-99.99,WSDL version 420,2013-09-26 17:53:00,
2013-09-26 13:58:00,84.7,74.9,29.74,North,-999,-999.0,-999.0,73,-99.99,,,-99.99,WSDL version 420,2013-09-26 17:58:00,
2013-09-26 14:03:00,86.0,76.4,29.74,East,90,0.9,2.7,73,-99.99,,,-99.99,WSDL version 420,2013-09-26 18:03:00,
2013-09-26 14:08:00,86.8,77.1,29.74,East,90,0.9,2.7,73,-99.99,,,-99.99,WSDL version 420,2013-09-26 18:08:00,
2013-09-26 14:15:00,88.0,77.7,29.71,East,90,0.9,2.7,71,-99.99,,,-99.99,WSDL version 420,2013-09-26 18:15:00,
2013-09-26 14:20:00,87.8,76.5,29.71,North,0,0.0,2.7,68,-99.99,,,-99.99,WSDL version 420,2013-09-26 18:20:00,
2013-09-26 14:25:00,86.9,75.1,29.71,North,-999,-999.0,-999.0,68,-99.99,,,-99.99,WSDL version 420,2013-09-26 18:25:00,
2013-09-26 14:30:00,84.5,71.4,29.74,North,-999,-999.0,-999.0,65,-99.99,,,-99.99,WSDL version 420,2013-09-26 18:30:00,
2013-09-26 14:35:00,82.3,70.1,29.74,North,-999,-999.0,-999.0,68,-99.99,,,-99.99,WSDL version 420,2013-09-26 18:35:00,
2013-09-26 14:40:00,81.3,70.1,29.74,North,-999,-999.0,-999.0,69,-99.99,,,-99.99,WSDL version 420,2013-09-26 18:40:00,
2013-09-26 14:45:00,80.6,70.3,29.74,North,-999,-999.0,-999.0,72,-99.99,,,-99.99,WSDL version 420,2013-09-26 18:45:00,
2013-09-26 14:50:00,80.2,71.0,29.74,North,-999,-999.0,-999.0,74,-99.99,,,-99.99,WSDL version 420,2013-09-26 18:50:00,
2013-09-26 14:55:00,79.8,71.1,29.74,North,-999,-999.0,-999.0,75,-99.99,,,-99.99,WSDL version 420,2013-09-26 18:55:00,
2013-09-26 15:00:00,79.5,71.2,29.74,North,-999,-999.0,-999.0,77,-99.99,,,-99.99,WSDL version 420,2013-09-26 19:00:00,
2013-09-26 15:05:00,79.3,71.4,29.74,North,-999,-999.0,-999.0,77,0.12,,,0.12,WSDL version 420,2013-09-26 19:05:00,
2013-09-26 15:10:00,79.2,71.7,29.74,North,-999,-999.0,-999.0,78,0.12,,,0.12,WSDL version 420,2013-09-26 19:10:00,
2013-09-26 15:15:00,79.2,72.1,29.74,North,-999,-999.0,-999.0,79,-99.99,,,-99.99,WSDL version 420,2013-09-26 19:15:00,
2013-09-26 15:20:00,79.3,72.6,29.74,North,-999,-999.0,-999.0,80,-99.99,,,-99.99,WSDL version 420,2013-09-26 19:20:00,
2013-09-26 15:25:00,79.6,73.1,29.74,North,-999,-999.0,-999.0,81,-99.99,,,-99.99,WSDL version 420,2013-09-26 19:25:00,
2013-09-26 15:30:00,79.8,73.5,29.74,North,-999,-999.0,-999.0,81,-99.99,,,-99.99,WSDL version 420,2013-09-26 19:30:00,
2013-09-26 15:35:00,80.0,73.7,29.74,North,-999,-999.0,-999.0,81,-99.99,,,-99.99,WSDL version 420,2013-09-26 19:35:00,
2013-09-26 15:40:00,80.2,73.9,29.74,North,-999,-999.0,-999.0,81,-99.99,,,-99.99,WSDL version 420,2013-09-26 19:40:00,
2013-09-26 15:45:00,80.5,74.5,29.74,North,-999,-999.0,-999.0,82,-99.99,,,-99.99,WSDL version 420,2013-09-26 19:45:00,
2013-09-26 15:50:00,80.9,75.0,29.74,North,-999,-999.0,-999.0,82,-99.99,,,-99.99,WSDL version 420,2013-09-26 19:50:00,
2013-09-26 15:55:00,81.4,75.4,29.74,North,-999,-999.0,-999.0,82,-99.99,,,-99.99,WSDL version 420,2013-09-26 19:55:00,
2013-09-26 16:00:00,82.0,76.0,29.74,North,-999,-999.0,-999.0,82,-99.99,,,-99.99,WSDL version 420,2013-09-26 20:00:00,
2013-09-26 16:07:00,82.6,76.2,29.74,North,-999,-999.0,-999.0,81,-99.99,,,-99.99,WSDL version 420,2013-09-26 20:07:00,
2013-09-26 16:12:00,82.8,76.2,29.74,North,-999,-999.0,-999.0,80,-99.99,,,-99.99,WSDL version 420,2013-09-26 20:12:00,
2013-09-26 16:17:00,82.9,76.0,29.74,North,-999,-999.0,-999.0,79,-99.99,,,-99.99,WSDL version 420,2013-09-26 20:17:00,
2013-09-26 16:22:00,83.2,76.0,29.74,North,-999,-999.0,-999.0,79,-99.99,,,-99.99,WSDL version 420,2013-09-26 20:22:00,
2013-09-26 16:29:00,83.9,76.7,29.74,North,-999,-999.0,-999.0,79,-99.99,,,-99.99,WSDL version 420,2013-09-26 20:29:00,
2013-09-26 16:34:00,83.8,76.3,29.74,North,-999,-999.0,-999.0,78,-99.99,,,-99.99,WSDL version 420,2013-09-26 20:34:00,
2013-09-26 16:39:00,83.7,75.9,29.74,North,-999,-999.0,-999.0,77,-99.99,,,-99.99,WSDL version 420,2013-09-26 20:39:00,
2013-09-26 16:44:00,83.8,75.9,29.74,SSE,158,1.6,1.6,77,-99.99,,,-99.99,WSDL version 420,2013-09-26 20:44:00,
2013-09-26 16:49:00,84.3,76.3,29.74,SSE,158,1.6,1.6,77,-99.99,,,-99.99,WSDL version 420,2013-09-26 20:49:00,
2013-09-26 16:54:00,84.7,76.6,29.74,SSE,158,1.6,1.6,77,-99.99,,,-99.99,WSDL version 420,2013-09-26 20:54:00,
2013-09-26 16:59:00,84.7,76.2,29.74,North,0,0.0,1.6,76,-99.99,,,-99.99,WSDL version 420,2013-09-26 20:59:00,
2013-09-26 17:04:00,84.6,76.2,29.74,North,0,0.0,1.6,76,-99.99,,,-99.99,WSDL version 420,2013-09-26 21:04:00,
2013-09-26 17:09:00,84.6,76.2,29.74,North,-999,-999.0,-999.0,76,-99.99,,,-99.99,WSDL version 420,2013-09-26 21:09:00,
2013-09-26 17:14:00,85.2,76.8,29.71,North,-999,-999.0,-999.0,76,-99.99,,,-99.99,WSDL version 420,2013-09-26 21:14:00,
2013-09-26 17:19:00,85.7,77.1,29.71,North,-999,-999.0,-999.0,75,-99.99,,,-99.99,WSDL version 420,2013-09-26 21:19:00,
2013-09-26 17:24:00,85.8,76.8,29.71,North,-999,-999.0,-999.0,74,-99.99,,,-99.99,WSDL version 420,2013-09-26 21:24:00,
2013-09-26 17:29:00,86.0,76.6,29.71,North,-999,-999.0,-999.0,74,-99.99,,,-99.99,WSDL version 420,2013-09-26 21:29:00,
2013-09-26 17:34:00,85.9,76.2,29.71,North,-999,-999.0,-999.0,73,-99.99,,,-99.99,WSDL version 420,2013-09-26 21:34:00,
2013-09-26 17:39:00,85.7,75.7,29.71,North,-999,-999.0,-999.0,72,-99.99,,,-99.99,WSDL version 420,2013-09-26 21:39:00,
2013-09-26 17:44:00,85.6,75.4,29.71,North,-999,-999.0,-999.0,72,-99.99,,,-99.99,WSDL version 420,2013-09-26 21:44:00,
2013-09-26 17:49:00,85.3,74.8,29.71,North,-999,-999.0,-999.0,71,-99.99,,,-99.99,WSDL version 420,2013-09-26 21:49:00,
2013-09-26 17:54:00,85.1,74.6,29.71,North,-999,-999.0,-999.0,71,-99.99,,,-99.99,WSDL version 420,2013-09-26 21:54:00,
2013-09-26 17:59:00,84.7,74.7,29.71,North,-999,-999.0,-999.0,72,-99.99,,,-99.99,WSDL version 420,2013-09-26 21:59:00,
2013-09-26 18:04:00,84.4,74.4,29.71,North,-999,-999.0,-999.0,72,-99.99,,,-99.99,WSDL version 420,2013-09-26 22:04:00,
2013-09-26 18:09:00,84.3,74.3,29.71,North,-999,-999.0,-999.0,72,-99.99,,,-99.99,WSDL version 420,2013-09-26 22:09:00,
2013-09-26 18:14:00,84.0,74.4,29.71,North,-999,-999.0,-999.0,73,-99.99,,,-99.99,WSDL version 420,2013-09-26 22:14:00,
2013-09-26 18:19:00,83.8,74.7,29.71,North,-999,-999.0,-999.0,74,-99.99,,,-99.99,WSDL version 420,2013-09-26 22:19:00,
2013-09-26 18:24:00,83.6,74.4,29.71,North,-999,-999.0,-999.0,74,-99.99,,,-99.99,WSDL version 420,2013-09-26 22:24:00,
2013-09-26 18:29:00,83.4,74.2,29.71,North,-999,-999.0,-999.0,74,-99.99,,,-99.99,WSDL version 420,2013-09-26 22:29:00,
2013-09-26 18:34:00,83.3,74.5,29.71,North,-999,-999.0,-999.0,75,-99.99,,,-99.99,WSDL version 420,2013-09-26 22:34:00,
2013-09-26 18:39:00,83.1,74.3,29.71,North,-999,-999.0,-999.0,75,-99.99,,,-99.99,WSDL version 420,2013-09-26 22:39:00,
2013-09-26 18:44:00,82.8,74.4,29.71,North,-999,-999.0,-999.0,76,-99.99,,,-99.99,WSDL version 420,2013-09-26 22:44:00,
2013-09-26 18:49:00,82.6,74.3,29.71,North,-999,-999.0,-999.0,76,-99.99,,,-99.99,WSDL version 420,2013-09-26 22:49:00,
2013-09-26 18:54:00,82.5,74.2,29.71,North,-999,-999.0,-999.0,76,-99.99,,,-99.99,WSDL version 420,2013-09-26 22:54:00,
2013-09-26 18:59:00,82.2,74.2,29.71,WSW,248,0.0,0.0,77,-99.99,,,-99.99,WSDL version 420,2013-09-26 22:59:00,
2013-09-26 19:04:00,81.9,74.0,29.71,WSW,248,0.0,0.0,77,-99.99,,,-99.99,WSDL version 420,2013-09-26 23:04:00,
2013-09-26 19:09:00,81.7,74.0,29.71,WSW,248,0.0,0.0,78,-99.99,,,-99.99,WSDL version 420,2013-09-26 23:09:00,
2013-09-26 19:14:00,81.5,74.0,29.71,North,0,0.0,0.0,78,-99.99,,,-99.99,WSDL version 420,2013-09-26 23:14:00,
2013-09-26 19:19:00,81.1,73.6,29.71,North,0,0.0,0.0,78,-99.99,,,-99.99,WSDL version 420,2013-09-26 23:19:00,
2013-09-26 19:24:00,81.1,74.0,29.71,North,-999,-999.0,-999.0,79,-99.99,,,-99.99,WSDL version 420,2013-09-26 23:24:00,
2013-09-26 19:29:00,81.0,73.8,29.71,North,-999,-999.0,-999.0,79,-99.99,,,-99.99,WSDL version 420,2013-09-26 23:29:00,
2013-09-26 19:34:00,80.7,73.6,29.71,North,-999,-999.0,-999.0,79,-99.99,,,-99.99,WSDL version 420,2013-09-26 23:34:00,
2013-09-26 19:39:00,80.6,73.9,29.71,North,-999,-999.0,-999.0,80,-99.99,,,-99.99,WSDL version 420,2013-09-26 23:39:00,
2013-09-26 19:44:00,80.5,73.8,29.71,North,-999,-999.0,-999.0,81,-99.99,,,-99.99,WSDL version 420,2013-09-26 23:44:00,
2013-09-26 19:49:00,80.3,74.0,29.71,North,-999,-999.0,-999.0,81,-99.99,,,-99.99,WSDL version 420,2013-09-26 23:49:00,
2013-09-26 19:54:00,80.1,73.8,29.71,North,-999,-999.0,-999.0,81,-99.99,,,-99.99,WSDL version 420,2013-09-26 23:54:00,
2013-09-26 19:59:00,80.1,73.7,29.74,North,-999,-999.0,-999.0,81,-99.99,,,-99.99,WSDL version 420,2013-09-26 23:59:00,
2013-09-26 20:04:00,80.1,73.8,29.74,ESE,113,0.0,0.0,82,-99.99,,,-99.99,WSDL version 420,2013-09-27 00:04:00,
2013-09-26 20:11:00,80.1,74.1,29.74,ESE,113,0.0,0.0,82,-99.99,,,-99.99,WSDL version 420,2013-09-27 00:11:00,
2013-09-26 20:16:00,80.1,74.2,29.71,ESE,113,0.0,0.0,82,-99.99,,,-99.99,WSDL version 420,2013-09-27 00:16:00,
2013-09-26 20:21:00,80.1,74.2,29.71,North,0,0.0,0.0,82,0.00,,,0.12,WSDL version 420,2013-09-27 00:21:00,
2013-09-26 20:26:00,80.1,74.1,29.71,North,-999,-999.0,-999.0,82,0.00,,,0.12,WSDL version 420,2013-09-27 00:26:00,
2013-09-26 20:31:00,80.1,74.1,29.74,North,-999,-999.0,-999.0,82,-99.99,,,-99.99,WSDL version 420,2013-09-27 00:31:00,
2013-09-26 20:36:00,80.1,74.1,29.74,North,-999,-999.0,-999.0,82,-99.99,,,-99.99,WSDL version 420,2013-09-27 00:36:00,
2013-09-26 20:41:00,80.1,74.3,29.74,North,-999,-999.0,-999.0,82,-99.99,,,-99.99,WSDL version 420,2013-09-27 00:41:00,
2013-09-26 20:46:00,80.1,74.4,29.74,North,-999,-999.0,-999.0,83,-99.99,,,-99.99,WSDL version 420,2013-09-27 00:46:00,
2013-09-26 20:51:00,80.1,74.5,29.74,North,-999,-999.0,-999.0,83,-99.99,,,-99.99,WSDL version 420,2013-09-27 00:51:00,
2013-09-26 20:56:00,80.0,74.5,29.74,North,-999,-999.0,-999.0,83,-99.99,,,-99.99,WSDL version 420,2013-09-27 00:56:00,
2013-09-26 21:01:00,79.9,74.4,29.74,SSE,158,0.0,0.0,83,-99.99,,,-99.99,WSDL version 420,2013-09-27 01:01:00,
2013-09-26 21:06:00,79.9,74.4,29.74,SSE,158,0.0,0.0,83,-99.99,,,-99.99,WSDL version 420,2013-09-27 01:06:00,
2013-09-26 21:11:00,79.9,74.4,29.74,SSE,158,0.0,0.0,83,-99.99,,,-99.99,WSDL version 420,2013-09-27 01:11:00,
2013-09-26 21:16:00,79.9,74.4,29.71,North,0,0.0,0.0,83,-99.99,,,-99.99,WSDL version 420,2013-09-27 01:16:00,
2013-09-26 21:21:00,79.9,74.8,29.71,North,0,0.0,0.0,84,-99.99,,,-99.99,WSDL version 420,2013-09-27 01:21:00,
2013-09-26 21:26:00,79.8,74.7,29.71,North,-999,-999.0,-999.0,84,-99.99,,,-99.99,WSDL version 420,2013-09-27 01:26:00,
2013-09-26 21:31:00,79.9,74.8,29.74,North,-999,-999.0,-999.0,84,-99.99,,,-99.99,WSDL version 420,2013-09-27 01:31:00,
2013-09-26 21:36:00,80.0,74.7,29.74,North,-999,-999.0,-999.0,83,-99.99,,,-99.99,WSDL version 420,2013-09-27 01:36:00,
2013-09-26 21:41:00,80.1,74.6,29.74,North,-999,-999.0,-999.0,83,-99.99,,,-99.99,WSDL version 420,2013-09-27 01:41:00,
2013-09-26 21:46:00,80.1,74.5,29.74,North,-999,-999.0,-999.0,83,-99.99,,,-99.99,WSDL version 420,2013-09-27 01:46:00,
2013-09-26 21:51:00,80.1,74.1,29.74,North,-999,-999.0,-999.0,82,-99.99,,,-99.99,WSDL version 420,2013-09-27 01:51:00,
2013-09-26 21:56:00,80.1,74.0,29.74,North,-999,-999.0,-999.0,81,-99.99,,,-99.99,WSDL version 420,2013-09-27 01:56:00,
2013-09-26 22:01:00,80.1,73.7,29.74,North,-999,-999.0,-999.0,81,-99.99,,,-99.99,WSDL version 420,2013-09-27 02:01:00,
2013-09-26 22:06:00,80.1,73.7,29.74,North,360,0.9,2.7,81,0.00,,,0.12,WSDL version 420,2013-09-27 02:06:00,
2013-09-26 22:11:00,80.1,73.7,29.74,NW,315,1.3,2.7,81,0.00,,,0.12,WSDL version 420,2013-09-27 02:11:00,
2013-09-26 22:16:00,80.1,73.3,29.77,NNW,332,1.3,2.7,80,0.00,,,0.12,WSDL version 420,2013-09-27 02:16:00,
2013-09-26 22:21:00,79.9,73.2,29.77,North,360,0.8,2.7,80,0.00,,,0.12,WSDL version 420,2013-09-27 02:21:00,
2013-09-26 22:26:00,79.9,73.2,29.77,North,353,1.1,2.7,80,0.00,,,0.12,WSDL version 420,2013-09-27 02:26:00,
2013-09-26 22:31:00,79.8,73.1,29.74,North,360,1.2,2.7,80,0.00,,,0.12,WSDL version 420,2013-09-27 02:31:00,
2013-09-26 22:36:00,79.7,73.0,29.74,WNW,285,1.2,2.2,80,0.00,,,0.12,WSDL version 420,2013-09-27 02:36:00,
2013-09-26 22:41:00,79.5,73.1,29.74,NNW,343,1.2,2.2,81,0.00,,,0.12,WSDL version 420,2013-09-27 02:41:00,
2013-09-26 22:46:00,79.4,73.1,29.77,North,349,0.8,2.2,81,0.00,,,0.12,WSDL version 420,2013-09-27 02:46:00,
2013-09-26 22:51:00,79.3,73.0,29.77,NNW,338,0.0,2.2,81,0.00,,,0.12,WSDL version 420,2013-09-27 02:51:00,
2013-09-26 22:56:00,79.2,72.9,29.77,NNW,342,0.7,2.0,81,0.00,,,0.12,WSDL version 420,2013-09-27 02:56:00,
2013-09-26 23:01:00,79.1,72.8,29.77,North,354,0.0,1.3,81,0.00,,,0.12,WSDL version 420,2013-09-27 03:01:00,
2013-09-26 23:06:00,78.9,72.9,29.77,NNW,338,0.0,0.0,82,0.00,,,0.12,WSDL version 420,2013-09-27 03:06:00,
2013-09-26 23:11:00,78.8,72.9,29.77,North,0,0.0,0.0,82,0.00,,,0.12,WSDL version 420,2013-09-27 03:11:00,
2013-09-26 23:16:00,78.6,73.0,29.77,North,360,0.0,0.0,83,0.00,,,0.12,WSDL version 420,2013-09-27 03:16:00,
2013-09-26 23:21:00,78.5,73.0,29.77,North,360,0.0,0.0,83,0.00,,,0.12,WSDL version 420,2013-09-27 03:21:00,
2013-09-26 23:26:00,78.4,72.9,29.77,North,360,0.0,0.0,83,0.00,,,0.12,WSDL version 420,2013-09-27 03:26:00,
2013-09-26 23:31:00,78.3,72.9,29.77,NNW,338,0.0,0.0,84,0.00,,,0.12,WSDL version 420,2013-09-27 03:31:00,
2013-09-26 23:36:00,78.1,73.0,29.77,NNW,338,0.0,0.0,84,0.00,,,0.12,WSDL version 420,2013-09-27 03:36:00,
2013-09-26 23:41:00,78.1,73.0,29.77,NNW,338,0.0,0.0,84,0.00,,,0.12,WSDL version 420,2013-09-27 03:41:00,
2013-09-26 23:46:00,78.0,72.9,29.77,NNW,338,0.0,0.0,84,0.00,,,0.12,WSDL version 420,2013-09-27 03:46:00,
2013-09-26 23:51:00,77.9,72.9,29.77,NW,315,0.0,0.0,86,0.00,,,0.12,WSDL version 420,2013-09-27 03:51:00,